Location: Nitra
(0.0000°N, 18.0833°E)
Time: 21:27:06
(UTC+02:00)

A-11 Canister half - Pass Details

Date: 02 April 2023
Orbit: 1526 x 1682 km, 47.3° (Epoch: 08 June)

Event Time Altitude Azimuth Distance (km) Brightness Sun altitude
Rises 11:23:23 0° 216° (SW) 4,842 11.4 67.5°
Reaches altitude 10° 11:26:29 10° 214° (SW) 3,873 11.1 68.2°
Maximum altitude 11:36:27 76° 129° (SE) 1,709 11.3 70.7°
Drops below altitude 10° 11:46:34 10° 45° (NE) 3,935 11.5 73.1°
Sets 11:49:44 0° 43° (NE) 4,922 11.8 73.8°
